Kremmling, CO

7:09 AM MDT on August 23, 2017 (GMT -0600)
Kremmling

Weather History for K20V - May, 2013

Change the Weather History Date:

Tuesday, May 7, 2013

  Actual Average Record
Temperature  
Mean Temperature 49 °F -  
Max Temperature 59 °F - 78 °F (2004)
Min Temperature 39 °F - 28 °F (2004)
Degree Days  
Heating Degree Days 16    
Month to date heating degree days  
Cooling Degree Days 0    
Month to date cooling degree days  
Moisture  
Dew Point 33 °F    
Average Humidity 60    
Maximum Humidity 87    
Minimum Humidity 31    
Precipitation  
Precipitation 0.01 in - 0.29 in (2005)
Sea Level Pressure  
Sea Level Pressure 30.09 in    
Wind  
Wind Speed 6 mph (SW)    
Max Wind Speed 16 mph    
Max Gust Speed 24 mph    
Visibility 10 miles    
Events Rain , Thunderstorm    
T = Trace of Precipitation, MM = Missing Value Source: NWS Daily Summary

Daily Weather History Graph

Daily Weather History Graph

Search for Another Location

Airport or City:

Trip Planner

Search our weather history database for the weather conditions in past years. The results will help you decide how hot, cold, wet, or windy it might be!

Date:

Astronomy

May. 07, 2013 Rise Set
Actual Time 5:57 AM MDT 8:06 PM MDT
Civil Twilight 5:28 AM MDT 8:36 PM MDT
Nautical Twilight 4:51 AM MDT 9:13 PM MDT
Astronomical Twilight 4:11 AM MDT 9:53 PM MDT
Moon 4:33 AM MDT (5/7) 6:09 PM MDT (5/7)
Length of Visible Light 15h 08m
Length of Day
14h 08m
Waning Crescent, 5% of the Moon is Illuminated
May 7
Waning Crescent
May 9
New
May 17
First Quarter
May 24
Full
May 31
Last Quarter

Hourly Weather History & Observations

Time (MDT) Temp. Windchill Dew Point Humidity Pressure Visibility Wind Dir Wind Speed Gust Speed Precip Events Conditions
12:14 AM 42.8 °F 35.8 °F 35.6 °F 76% 30.07 in 10.0 mi West 13.8 mph - N/A   Overcast
12:35 AM 42.8 °F 37.5 °F 35.6 °F 76% 30.08 in 10.0 mi West 9.2 mph - N/A   Light Drizzle
12:55 AM 42.8 °F 39.3 °F 33.8 °F 70% 30.09 in 10.0 mi WSW 5.8 mph - N/A Rain Light Rain
1:15 AM 41.0 °F 39.0 °F 33.8 °F 76% 30.09 in 10.0 mi SW 3.5 mph - N/A   Overcast
1:35 AM 41.0 °F 36.4 °F 33.8 °F 76% 30.09 in 10.0 mi South 6.9 mph - N/A   Overcast
1:55 AM 41.0 °F - 32.0 °F 70% 30.09 in 10.0 mi Calm Calm - N/A   Overcast
2:15 AM 41.0 °F - 32.0 °F 70% 30.08 in 10.0 mi Calm Calm - N/A   Overcast
2:35 AM 41.0 °F 35.8 °F 32.0 °F 70% 30.08 in 10.0 mi SSW 8.1 mph 17.3 mph N/A   Light Drizzle
2:55 AM 41.0 °F 35.8 °F 33.8 °F 76% 30.09 in 10.0 mi South 8.1 mph - N/A   Light Drizzle
3:15 AM 41.0 °F 39.0 °F 32.0 °F 70% 30.09 in 10.0 mi SW 3.5 mph - N/A   Light Drizzle
3:35 AM 41.0 °F 38.0 °F 33.8 °F 76% 30.09 in 10.0 mi West 4.6 mph - N/A   Drizzle
3:54 AM 41.0 °F 38.0 °F 33.8 °F 76% 30.09 in 10.0 mi West 4.6 mph - N/A   Drizzle
4:14 AM 41.0 °F - 33.8 °F 76% 30.09 in 10.0 mi Calm Calm - N/A   Drizzle
4:35 AM 41.0 °F - 33.8 °F 76% 30.10 in 10.0 mi Calm Calm - N/A   Drizzle
4:55 AM 41.0 °F - 35.6 °F 81% 30.10 in 10.0 mi Calm Calm - N/A   Drizzle
5:15 AM 41.0 °F - 33.8 °F 76% 30.10 in 10.0 mi Calm Calm - N/A Rain Rain
5:35 AM 41.0 °F - 35.6 °F 81% 30.10 in 10.0 mi Calm Calm - N/A Rain Rain
5:55 AM 41.0 °F - 35.6 °F 81% 30.11 in 10.0 mi Calm Calm - N/A   Drizzle
6:15 AM 39.2 °F - 35.6 °F 87% 30.11 in 10.0 mi Calm Calm - 0.01 in   Drizzle
6:35 AM 39.2 °F - 35.6 °F 87% 30.12 in 10.0 mi Calm Calm - 0.01 in   Overcast
6:55 AM 41.0 °F - 35.6 °F 81% 30.12 in 10.0 mi Calm Calm - 0.01 in   Overcast
7:15 AM 41.0 °F 39.0 °F 35.6 °F 81% 30.12 in 10.0 mi ESE 3.5 mph - N/A   Overcast
7:35 AM 41.0 °F 38.0 °F 35.6 °F 81% 30.12 in 10.0 mi ESE 4.6 mph - N/A   Mostly Cloudy
7:55 AM 41.0 °F 39.0 °F 35.6 °F 81% 30.12 in 10.0 mi ESE 3.5 mph - N/A   Mostly Cloudy
8:15 AM 42.8 °F 40.1 °F 35.6 °F 76% 30.12 in 10.0 mi ESE 4.6 mph - N/A   Overcast
8:35 AM 42.8 °F 40.1 °F 35.6 °F 76% 30.12 in 10.0 mi East 4.6 mph - N/A   Overcast
8:54 AM 46.4 °F 44.3 °F 37.4 °F 71% 30.12 in 10.0 mi SE 4.6 mph - N/A   Overcast
9:15 AM 46.4 °F 45.2 °F 35.6 °F 66% 30.12 in 10.0 mi SE 3.5 mph - N/A   Overcast
9:35 AM 46.4 °F - 35.6 °F 66% 30.12 in 10.0 mi Calm Calm - N/A   Overcast
9:55 AM 46.4 °F - 35.6 °F 66% 30.12 in 10.0 mi Calm Calm - N/A   Overcast
10:15 AM 50.0 °F - 35.6 °F 58% 30.11 in 10.0 mi West 4.6 mph - N/A   Scattered Clouds
10:35 AM 50.0 °F - 35.6 °F 58% 30.11 in 10.0 mi WSW 6.9 mph - N/A   Scattered Clouds
10:55 AM 51.8 °F - 33.8 °F 50% 30.10 in 10.0 mi SSE 5.8 mph - N/A   Scattered Clouds
11:15 AM 55.4 °F - 32.0 °F 41% 30.09 in 10.0 mi WNW 5.8 mph - N/A Thunderstorm Clear
11:35 AM 53.6 °F - 30.2 °F 41% 30.09 in 10.0 mi West 6.9 mph - N/A   Clear
11:54 AM 53.6 °F - 32.0 °F 44% 30.08 in 10.0 mi WNW 3.5 mph - N/A   Mostly Cloudy
12:15 PM 53.6 °F - 32.0 °F 44% 30.07 in 10.0 mi SSW 13.8 mph 17.3 mph N/A   Scattered Clouds
12:35 PM 55.4 °F - 32.0 °F 41% 30.06 in 10.0 mi WSW 12.7 mph - N/A   Mostly Cloudy
12:55 PM 55.4 °F - 32.0 °F 41% 30.06 in 10.0 mi WSW 10.4 mph 17.3 mph N/A   Overcast
1:15 PM 55.4 °F - 26.6 °F 33% 30.06 in 10.0 mi WSW 13.8 mph 17.3 mph N/A   Mostly Cloudy
1:35 PM 57.2 °F - 26.6 °F 31% 30.06 in 10.0 mi West 5.8 mph - N/A   Scattered Clouds
1:55 PM 57.2 °F - 26.6 °F 31% 30.04 in 10.0 mi WSW 12.7 mph 24.2 mph N/A   Scattered Clouds
2:15 PM 55.4 °F - 32.0 °F 41% 30.04 in 10.0 mi NE 10.4 mph - N/A Thunderstorm Mostly Cloudy
2:35 PM 59.0 °F - 32.0 °F 36% 30.04 in 10.0 mi ENE 8.1 mph - N/A   Mostly Cloudy
2:55 PM 55.4 °F - 30.2 °F 38% 30.04 in 10.0 mi SSW 4.6 mph - N/A   Scattered Clouds
3:15 PM 57.2 °F - 28.4 °F 33% 30.04 in 10.0 mi WSW 16.1 mph 21.9 mph N/A   Scattered Clouds
3:35 PM 55.4 °F - 28.4 °F 36% 30.04 in 10.0 mi SW 13.8 mph 21.9 mph N/A   Scattered Clouds
3:55 PM 55.4 °F - 26.6 °F 33% 30.04 in 10.0 mi WSW 15.0 mph 24.2 mph N/A Thunderstorm Clear
4:14 PM 55.4 °F - 24.8 °F 31% 30.04 in 10.0 mi SW 10.4 mph 16.1 mph N/A   Mostly Cloudy
4:35 PM 55.4 °F - 26.6 °F 33% 30.04 in 10.0 mi West 15.0 mph - N/A Thunderstorm Overcast
4:55 PM 55.4 °F - 30.2 °F 38% 30.05 in 10.0 mi NNW 11.5 mph - N/A   Overcast
5:15 PM 51.8 °F - 32.0 °F 47% 30.06 in 10.0 mi North 12.7 mph 20.7 mph N/A   Mostly Cloudy
5:55 PM 51.8 °F - 32.0 °F 47% 30.06 in 10.0 mi NNW 15.0 mph 21.9 mph N/A   Scattered Clouds
6:15 PM 51.8 °F - 32.0 °F 47% 30.06 in 10.0 mi NNW 12.7 mph - N/A   Clear
6:35 PM 50.0 °F - 30.2 °F 47% 30.06 in 10.0 mi NNW 9.2 mph - N/A   Clear
6:55 PM 50.0 °F - 32.0 °F 50% 30.06 in 10.0 mi NNW 9.2 mph - N/A   Clear
7:15 PM 50.0 °F - 30.2 °F 47% 30.06 in 10.0 mi Calm Calm - N/A   Clear
7:35 PM 50.0 °F - 30.2 °F 47% 30.06 in 10.0 mi WSW 5.8 mph - N/A   Mostly Cloudy
7:55 PM 50.0 °F - 32.0 °F 50% 30.07 in 10.0 mi SSW 6.9 mph - N/A Thunderstorm Mostly Cloudy
8:15 PM 50.0 °F - 32.0 °F 50% 30.09 in 10.0 mi SSW 4.6 mph - N/A   Scattered Clouds
8:35 PM 46.4 °F 41.5 °F 32.0 °F 57% 30.08 in 10.0 mi WSW 10.4 mph 21.9 mph N/A   Overcast
8:55 PM 44.6 °F 40.2 °F 32.0 °F 61% 30.10 in 10.0 mi South 8.1 mph 18.4 mph N/A   Overcast
9:15 PM 42.8 °F 39.3 °F 32.0 °F 66% 30.10 in 10.0 mi South 5.8 mph - N/A   Mostly Cloudy
9:35 PM 44.6 °F 40.7 °F 32.0 °F 61% 30.11 in 10.0 mi WSW 6.9 mph - N/A   Overcast
9:55 PM 44.6 °F 40.2 °F 32.0 °F 61% 30.12 in 10.0 mi SSW 8.1 mph - N/A   Overcast
10:15 PM 44.6 °F - 32.0 °F 61% 30.12 in 10.0 mi Calm Calm - N/A   Overcast
10:35 PM 42.8 °F 40.1 °F 32.0 °F 66% 30.12 in 10.0 mi SW 4.6 mph - N/A   Overcast
10:54 PM 42.8 °F 41.1 °F 32.0 °F 66% 30.13 in 10.0 mi SW 3.5 mph - N/A   Overcast
11:14 PM 42.8 °F 39.3 °F 32.0 °F 66% 30.12 in 10.0 mi West 5.8 mph - N/A   Overcast
11:35 PM 42.8 °F - 32.0 °F 66% 30.12 in 10.0 mi Calm Calm - N/A   Overcast
11:54 PM 42.8 °F 39.3 °F 32.0 °F 66% 30.12 in 10.0 mi West 5.8 mph - N/A   Overcast